Regional Weather Roundup
Issued by NWS Northern Indiana

Home | Current Version | Previous Version | Text Only | Print | Product List | Glossary Off
Versions: 1 2 3 4 5 6 7 8 9 10 11 12 13 14 15 16 17 18 19 20 21 22 23 24 25 26 27 28 29 30 31 32 33 34 35 36 37 38 39 40 41 42 43 44 45 46 47 48 49 50

000
ASUS43 KIWX 240200
RWRIWX

KIWX WEATHER ROUNDUP
NATIONAL WEATHER SERVICE NORTHERN INDIANA
1000 PM EDT MON OCT 23 2017

NOTE: "FAIR" INDICATES FEW OR NO CLOUDS BELOW 12,000 FEET WITH NO
SIGNIFICANT WEATHER AND/OR OBSTRUCTIONS TO VISIBILITY.

* THESE STATIONS ARE NOT UNDER NWS QUALITY CONTROL. THEY ALSO MAY NOT
  REPORT WEATHER SUCH AS PRECIPITATION OR FOG.

INZ001>027-240300-
NORTHERN INDIANA

CITY           SKY/WX    TMP DP  RH WIND       PRES   REMARKS
GARY*          CLOUDY    52  50  93 CALM      29.66F
MICHIGAN CITY* CLOUDY    50  50 100 SW9       29.66S
SOUTH BEND     LGT RAIN  51  50  96 W10       29.65R
GOSHEN         LGT RAIN  52  48  86 W21       29.62S
MONTICELLO*    CLOUDY    50  49  95 W8        29.69F
FORT WAYNE     LGT RAIN  51  48  89 W16G24    29.62S
PERU/GRISSOM   LGT RAIN  51  46  83 W8        29.68R

$$
INZ028>050-240300-
CENTRAL INDIANA

CITY           SKY/WX    TMP DP  RH WIND       PRES   REMARKS
LAFAYETTE      CLOUDY    50  50 100 SW3       29.70F
KOKOMO*        LGT RAIN  50  49  96 W15       29.71R
MUNCIE*        LGT RAIN  50  46  86 W9        29.70R
INDIANAPOLIS   CLOUDY    49  47  93 SW13      29.74R

$$
MIZ043>046-050>051-056>058-064>065-071>073-077>080-240300-
SOUTHWEST LOWER MICHIGAN

CITY           SKY/WX    TMP DP  RH WIND       PRES   REMARKS
BATTLE CREEK   RAIN      50  49  96 W20G26    29.54R
BENTON HARBOR  CLOUDY    54  46  74 W14G23    29.61S
COLDWATER*     LGT RAIN  51  51  99 W15       29.55R
HILLSDALE*     LGT RAIN  52  48  87 W18G30    29.51R
HOLLAND        CLOUDY    51  46  83 NW8       29.57S
GRAND RAPIDS   RAIN      51  50  96 W20G26    29.51R
KALAMAZOO      LGT RAIN  51  46  83 NW16G26   29.58R
STURGIS*       RAIN      51  50  97 W9        29.58R
THREE RIVERS*  LGT RAIN  53  51  94 NW9       29.59R

$$
OHZ001>008-015>018-024>025-240300-
NORTHWEST OHIO

CITY           SKY/WX    TMP DP  RH WIND       PRES   REMARKS
DEFIANCE       LGT RAIN  54  51  90 W9G20     29.56R
FINDLAY        LGT RAIN  55  51  86 SW20G25   29.57S
TOLEDO EXPRESS LGT RAIN  56  56 100 SW20G26   29.51R FOG
TOLEDO METCALF LGT RAIN  56  54  93 SW17      29.52F FOG
LIMA           LGT RAIN  52  51  97 W15       29.61R

$$
AND FOR LAKE MICHIGAN COASTAL AND OPEN LAKE BUOY OBSERVATIONS

STATION/POSITION TEMP    WIND        PRES    VSBY  WAVE
                 AIR SEA DIR/SP/G                  HT/PER
                 (F)     (DEG/KT/KT) (MB)    (MI)  (FT/S)
CALUMET HARBOR    52     210/  3/  5 1003.8F
MICHIGAN CITY     53     240/ 19/ 21   N/A
BURNS HARBOR      53     220/ 11/ 14 1005.1S
SAINT JOSEPH      56     290/ 15/ 20 1003.7
SOUTH LAKE BUOY   55 60  320/ 17/ 19 1002.8          3/ 5
4 MI NW BRIDGMAN  55 58  320/ 14/ 17 1003.5F         5/ 5
MICHIGAN CITY     54 57  250/ 16/ 21   N/A           5/ 6

$$
&&



USA.gov is the U.S. government's official web portal to all federal, state and local government web resources and services.